Location: Minneapolis
(45.0000°N, 93.0000°W)
Time: 07:37:23
(UTC-05:00)

N. Korean satellite - Pass Details

Date: 09 March 2018
Orbit: 458 x 511 km, 97.2° (Epoch: 21 September)

Event Time Altitude Azimuth Distance (km) Brightness Sun altitude
Rises 19:15:58 0° 218° (SW) 2,517 10.6 -12.4°
Reaches altitude 10° 19:19:41 10° 259° (W) 1,664 10.5 -13.1°
Maximum altitude 19:20:26 11° 271° (W) 1,636 10.7 -13.2°
Drops below altitude 10° 19:21:12 10° 284° (WNW) 1,674 10.7 -13.3°
Sets 19:25:01 0° 325° (NW) 2,583 10.9 -14.0°
